Weather in Ryabovo

Russia / Tyumen Oblast     57°01′47″N   70°21′17″E
temp.,
°C
wind,
m/s
gust,
m/s
humid.,
%
clouds,
%
prec.,
mm/h
press.,
hPa
HPBL,
m
16 may, sun
sun1623:00+19ssw3957100 0.1 1013181
02:00+15se258096 0.1 101499
05:00+17w3969100 0.1 1014200
08:00+21nw595475 0.0 1015732
11:00+26nw593994 0.0 10151708
14:00+28nw5103473 0.0 10152826
17:00+27n363742 0.1 10151255
20:00+20e266719 0.4 1015109
17 may, mon
mon1723:00+17ese2380100 0.6 101648
02:00+16sse3782100 0.0 1015136
05:00+16s38800 0.1 1015144
08:00+24w49442 0.0 1015376
11:00+29w610280 0.0 10142833
14:00+31wnw7102021 0.0 10134083
17:00+29w492687 0.0 1011790
20:00+20sw2255100 0.2 101127
18 may, tue
tue1823:00+16se11829 0.4 101214
02:00+15wsw3878100 0.0 1012169
05:00+16w31171100 0.0 1011289
08:00+22wnw48500 0.0 1010547
11:00+26wnw483452 0.0 10092513
14:00+26nnw563695 0.1 10052437
17:00+18nnw386496 1.8 1009975
20:00+16nw51080100 1.3 1008675
19 may, wed
wed1923:00+14n51091100 4.3 1011970
02:00+11nne61189100 1.2 1014952
05:00+9n5128698 1.4 1017770
08:00+11n69620 0.0 1019837
11:00+14n68415 0.0 10211657
14:00+15n6831100 0.0 10221885
17:00+14n5831100 0.0 10231780
20:00+10n37445 0.0 1024249
20 may, thu
thu2023:00+6n23565 0.0 102656
02:00+5nne2255100 0.0 102735
05:00+5ne115754 0.0 102812
08:00+10wsw223556 0.0 1028614
11:00+14wnw3434100 0.0 10261229
14:00+18w353499 0.0 10241525
17:00+20w47349 0.0 10221642
20:00+15sw36575 0.0 102193